Springfield, IL

11:56 PM CST on February 11, 2016 (GMT -0600)
Capital

Weather History for KSPI - December, 2012

Change the Weather History Date:

Wednesday, December 19, 2012

  Actual Average Record
Temperature  
Mean Temperature 38 °F 29 °F  
Max Temperature 45 °F 37 °F 60 °F (1957)
Min Temperature 31 °F 21 °F -15 °F (1981)
Degree Days  
Heating Degree Days 27 36  
Month to date heating degree days 382 629  
Since 1 July heating degree days 1443 1697  
Cooling Degree Days 0 0  
Month to date cooling degree days 1 0  
Year to date cooling degree days 1535 1122  
Moisture  
Dew Point 35 °F    
Average Humidity 89    
Maximum Humidity 96    
Minimum Humidity 82    
Precipitation  
Precipitation 0.14 in 0.07 in 3.67 in (1895)
Month to date precipitation 2.14 1.65  
Year to date precipitation 28.92 36.56  
Snow  
Snow 0.00 in 0.20 in 10.90 in (1973)
Month to date snowfall 0.2 3.0  
Since 1 July snowfall 0.2 3.6  
Snow Depth 0.00 in    
Sea Level Pressure  
Sea Level Pressure 29.90 in    
Wind  
Wind Speed 10 mph (East)    
Max Wind Speed 21 mph    
Max Gust Speed 26 mph    
Visibility 8 miles    
Events Rain    
T = Trace of Precipitation, MM = Missing Value Source: NWS Daily Summary

Daily Weather History Graph

Daily Weather History Graph

Search for Another Location

Airport or City:

Trip Planner

Search our weather history database for the weather conditions in past years. The results will help you decide how hot, cold, wet, or windy it might be!

Date:

Astronomy

Dec. 19, 2012 Rise Set
Actual Time 7:15 AM CST 4:36 PM CST
Civil Twilight 6:45 AM CST 5:07 PM CST
Nautical Twilight 6:11 AM CST 5:41 PM CST
Astronomical Twilight 5:38 AM CST 6:13 PM CST
Moon 11:25 AM CST (12/19) No Moon Set
Length of Visible Light 10h 21m
Length of Day
9h 20m
Waxing Crescent, 45% of the Moon is Illuminated
Dec 19
Waxing Crescent
Dec 19
First Quarter
Dec 28
Full
Jan 4
Last Quarter
Jan 11
New

Hourly Weather History & Observations

Time (CST) Temp. Windchill Dew Point Humidity Pressure Visibility Wind Dir Wind Speed Gust Speed Precip Events Conditions
12:52 AM 36.0 °F 30.3 °F 32.0 °F 86% 29.93 in 10.0 mi NNW 6.9 mph - N/A   Overcast
1:52 AM 36.0 °F 31.1 °F 32.0 °F 86% 29.96 in 10.0 mi North 5.8 mph - N/A   Overcast
2:52 AM 36.0 °F 33.3 °F 32.0 °F 86% 29.98 in 10.0 mi NNW 3.5 mph - N/A   Overcast
3:52 AM 36.0 °F - 30.9 °F 82% 29.99 in 10.0 mi Calm Calm - N/A   Overcast
4:52 AM 36.0 °F - 30.9 °F 82% 30.00 in 10.0 mi Calm Calm - N/A   Overcast
5:32 AM 33.8 °F 30.8 °F 30.2 °F 87% 29.98 in 10.0 mi NE 3.5 mph - N/A   Scattered Clouds
5:52 AM 33.1 °F 30.0 °F 30.0 °F 89% 29.99 in 10.0 mi NE 3.5 mph - N/A   Clear
6:52 AM 32.0 °F 28.7 °F 30.0 °F 92% 30.02 in 8.0 mi NE 3.5 mph - N/A   Clear
7:52 AM 33.1 °F 27.7 °F 32.0 °F 96% 30.01 in 6.0 mi ENE 5.8 mph - N/A   Clear
8:52 AM 35.1 °F 31.0 °F 33.1 °F 92% 30.04 in 7.0 mi ENE 4.6 mph - N/A   Clear
9:52 AM 37.0 °F 30.4 °F 33.1 °F 86% 30.05 in 8.0 mi East 9.2 mph - N/A   Partly Cloudy
10:44 AM 37.4 °F 31.4 °F 33.8 °F 87% 30.04 in 7.0 mi East 8.1 mph - N/A   Mostly Cloudy
10:52 AM 37.0 °F 29.3 °F 34.0 °F 89% 30.04 in 7.0 mi East 11.5 mph - N/A   Mostly Cloudy
11:52 AM 37.9 °F 30.9 °F 35.1 °F 89% 30.01 in 7.0 mi East 10.4 mph - N/A   Mostly Cloudy
12:52 PM 39.0 °F 31.0 °F 35.1 °F 86% 29.97 in 9.0 mi East 13.8 mph - N/A   Mostly Cloudy
1:52 PM 39.0 °F 31.4 °F 36.0 °F 89% 29.97 in 8.0 mi ESE 12.7 mph - N/A   Overcast
2:48 PM 39.2 °F 30.2 °F 35.6 °F 87% 29.92 in 8.0 mi ESE 17.3 mph - 0.00 in   Overcast
2:52 PM 39.0 °F 29.9 °F 36.0 °F 89% 29.94 in 8.0 mi ESE 17.3 mph - 0.00 in   Overcast
3:52 PM 39.0 °F 31.8 °F 36.0 °F 89% 29.92 in 8.0 mi East 11.5 mph - N/A   Clear
4:52 PM 39.0 °F 31.0 °F 37.0 °F 93% 29.90 in 8.0 mi East 13.8 mph 20.7 mph N/A   Scattered Clouds
5:52 PM 39.9 °F 31.4 °F 37.0 °F 89% 29.87 in 8.0 mi East 16.1 mph 20.7 mph 0.00 in   Overcast
6:52 PM 39.0 °F 31.0 °F 39.0 °F 100% 29.86 in 5.0 mi East 13.8 mph - 0.02 in Rain Light Rain
7:08 PM 39.2 °F 31.2 °F 39.2 °F 100% 29.84 in 2.5 mi East 13.8 mph - 0.00 in Rain Light Rain
7:21 PM 39.2 °F 31.2 °F 39.2 °F 100% 29.83 in 2.5 mi East 13.8 mph - 0.01 in Rain Light Rain
7:36 PM 39.2 °F 30.8 °F 39.2 °F 100% 29.81 in 3.0 mi East 15.0 mph 23.0 mph 0.01 in Rain Light Rain
7:52 PM 39.9 °F 31.1 °F 39.0 °F 97% 29.82 in 6.0 mi East 17.3 mph - 0.01 in   Overcast
8:52 PM 39.9 °F 30.8 °F 39.2 °F 97% 29.75 in 7.0 mi East 18.4 mph - 0.09 in Rain Light Rain
9:52 PM 41.0 °F 32.8 °F 39.2 °F 93% 29.69 in 7.0 mi ESE 16.1 mph 21.9 mph 0.01 in   Overcast
10:04 PM 41.0 °F 33.5 °F - N/A% 29.68 in 7.0 mi ESE 13.8 mph 23.0 mph N/A   Overcast
10:52 PM 43.0 °F 35.1 °F - N/A% 29.64 in 8.0 mi ESE 17.3 mph - 0.01 in   Overcast
11:52 PM 45.0 °F 38.2 °F - N/A% 29.57 in 8.0 mi SE 15.0 mph - N/A   Overcast